TimePST,TemperatureF,Dew PointF,Humidity,Sea Level PressureIn,VisibilityMPH,Wind Direction,Wind SpeedMPH,Gust SpeedMPH,PrecipitationIn,Events,Conditions,WindDirDegrees,DateUTC
12:53 AM,36.0,30.9,82,30.28,10.0,South,4.6,-,N/A,,Overcast,180,2012-11-13 08:53:00
1:53 AM,34.0,30.0,85,30.26,10.0,SE,3.5,-,N/A,,Scattered Clouds,130,2012-11-13 09:53:00
2:53 AM,34.0,30.0,85,30.25,10.0,South,4.6,-,N/A,,Clear,180,2012-11-13 10:53:00
3:53 AM,33.1,28.9,85,30.23,10.0,South,5.8,-,N/A,,Scattered Clouds,180,2012-11-13 11:53:00
4:53 AM,32.0,30.0,92,30.24,10.0,SSW,3.5,-,N/A,,Overcast,210,2012-11-13 12:53:00
5:53 AM,34.0,30.9,89,30.25,10.0,Calm,Calm,-,N/A,,Overcast,0,2012-11-13 13:53:00
6:00 AM,33.8,30.2,87,30.23,10.0,Calm,Calm,-,N/A,,Overcast,0,2012-11-13 14:00:00
6:53 AM,36.0,30.9,82,30.23,10.0,Calm,Calm,-,N/A,,Overcast,0,2012-11-13 14:53:00
7:53 AM,37.0,32.0,82,30.24,10.0,Calm,Calm,-,N/A,,Overcast,0,2012-11-13 15:53:00
8:18 AM,37.4,32.0,81,30.22,10.0,Calm,Calm,-,0.00,Rain,Light Rain,0,2012-11-13 16:18:00
8:53 AM,37.9,32.0,79,30.23,10.0,Calm,Calm,-,0.00,Rain,Light Rain,0,2012-11-13 16:53:00
9:17 AM,39.2,33.8,81,30.21,10.0,Calm,Calm,-,0.00,,Overcast,0,2012-11-13 17:17:00
9:53 AM,42.1,35.1,76,30.22,10.0,Calm,Calm,-,0.00,,Overcast,0,2012-11-13 17:53:00
10:53 AM,45.0,36.0,71,30.21,10.0,NNE,3.5,-,N/A,,Overcast,30,2012-11-13 18:53:00
11:53 AM,46.0,36.0,68,30.19,10.0,Variable,4.6,-,N/A,,Mostly Cloudy,0,2012-11-13 19:53:00
12:53 PM,48.9,37.0,64,30.16,10.0,Variable,3.5,-,N/A,,Mostly Cloudy,0,2012-11-13 20:53:00
1:53 PM,48.0,36.0,63,30.16,10.0,Calm,Calm,-,N/A,,Mostly Cloudy,0,2012-11-13 21:53:00
2:53 PM,48.9,36.0,61,30.14,10.0,Calm,Calm,-,N/A,,Mostly Cloudy,0,2012-11-13 22:53:00
3:53 PM,48.0,37.0,66,30.14,10.0,Calm,Calm,-,N/A,,Mostly Cloudy,0,2012-11-13 23:53:00
4:53 PM,46.0,37.9,73,30.14,10.0,Calm,Calm,-,N/A,,Overcast,0,2012-11-14 00:53:00
5:53 PM,43.0,37.0,80,30.15,7.0,North,6.9,-,N/A,,Overcast,10,2012-11-14 01:53:00
6:53 PM,42.1,37.9,85,30.16,7.0,North,9.2,-,N/A,,Overcast,360,2012-11-14 02:53:00
7:40 PM,41.0,37.4,87,30.16,7.0,North,4.6,-,0.00,Rain,Light Rain,360,2012-11-14 03:40:00
7:53 PM,41.0,37.9,89,30.17,7.0,North,5.8,-,0.00,Rain,Light Rain,360,2012-11-14 03:53:00
8:53 PM,41.0,37.9,89,30.17,7.0,NNE,4.6,-,0.00,Rain,Light Rain,30,2012-11-14 04:53:00
9:25 PM,39.2,39.2,100,30.17,7.0,Calm,Calm,-,0.00,,Overcast,0,2012-11-14 05:25:00
9:53 PM,39.9,37.9,93,30.18,7.0,North,3.5,-,0.00,,Overcast,10,2012-11-14 05:53:00
10:53 PM,39.0,37.9,96,30.18,10.0,North,3.5,-,N/A,,Overcast,360,2012-11-14 06:53:00
11:53 PM,37.9,37.0,97,30.18,10.0,Calm,Calm,-,N/A,,Mostly Cloudy,0,2012-11-14 07:53:00